This is the latest recevied weather packets stored in our database for station/object EA3HRE-13. If no packets are shown the sender has not sent any weather packets the latest 10 day(s).
| Time | Temp. | Humidity | Pressure | Rain* | Wind** | Luminosity | Snow |
|---|---|---|---|---|---|---|---|
| 1787595682 | 20.56° C | 100% | 1010.2 hPa | 0 mm | - | - | - |
| 1787595082 | 20° C | 100% | 1010.4 hPa | 0 mm | - | - | - |
| 1787594482 | 20° C | 100% | 1010.1 hPa | 0 mm | - | - | - |
| 1787593881 | 20° C | 100% | 1009.7 hPa | 0 mm | - | - | - |
| 1787593282 | 20.56° C | 100% | 1010.8 hPa | 0 mm | - | - | - |
| 1787592681 | 20.56° C | 100% | 1009.6 hPa | 0 mm | - | - | - |
| 1787592081 | 19.44° C | 100% | 1009.2 hPa | 0 mm | - | - | - |
| 1787591481 | 20° C | 100% | 1009 hPa | 0 mm | - | - | - |
| 1787590881 | 21.11° C | 100% | 1008.6 hPa | 0 mm | - | - | - |
| 1787590281 | 21.67° C | 100% | 1009.3 hPa | 0 mm | - | - | - |
| 1787589663 | 27.22° C | 100% | 1009.2 hPa | 0 mm | - | - | - |
| 1787587435 | 27.22° C | 100% | 1008.5 hPa | 0 mm | - | - | - |
| 1787586835 | 27.78° C | 100% | 1008.8 hPa | 0 mm | - | - | - |
| 1787586235 | 27.78° C | 100% | 1008.3 hPa | 0 mm | - | - | - |
| 1787585635 | 27.78° C | 100% | 1008.8 hPa | 0 mm | - | - | - |
| 1787585035 | 28.33° C | 100% | 1009.1 hPa | 0 mm | - | - | - |
| 1787584435 | 28.89° C | 100% | 1009.1 hPa | 0 mm | - | - | - |
| 1787583835 | 29.44° C | 100% | 1008.9 hPa | 0 mm | - | - | - |
| 1787583234 | 30.56° C | 100% | 1009.3 hPa | 0 mm | - | - | - |
| 1787582634 | 31.11° C | 100% | 1009.2 hPa | 0 mm | - | - | - |
| 1787582034 | 31.11° C | 100% | 1009.5 hPa | 0 mm | - | - | - |
| 1787581434 | 31.11° C | 100% | 1009.6 hPa | 0 mm | - | - | - |
| 1787580834 | 30.56° C | 100% | 1009.4 hPa | 0 mm | - | - | - |
| 1787580234 | 30° C | 100% | 1009.7 hPa | 0 mm | - | - | - |
| 1787579604 | 30.56° C | 100% | 1010.3 hPa | 0 mm | - | - | - |
* Rain latest hour (hover to see other rain measurements)
** Current wind speed in m/s (hover to see current wind gust speed)